Weather History for KETH - December, 2012

Change the Weather History Date:

Wednesday, December 5, 2012

  Actual Average Record
Temperature  
Mean Temperature 26 °F -  
Max Temperature 39 °F 30 °F 51 °F (1990)
Min Temperature 12 °F 12 °F -9 °F (2000)
Degree Days  
Heating Degree Days 40    
Moisture  
Dew Point 19 °F    
Average Humidity 67    
Maximum Humidity 86    
Minimum Humidity 52    
Precipitation  
Precipitation 0.00 in - - ()
Sea Level Pressure  
Sea Level Pressure 29.99 in    
Wind  
Wind Speed 13 mph (SE)    
Max Wind Speed 29 mph    
Max Gust Speed 33 mph    
Visibility 10 miles    
Events      
Averages and records for this station are not official NWS values.
T = Trace of Precipitation, MM = Missing Value Source: NWS Daily Summary

Daily Weather History Graph

Daily Weather History Graph

Search for Another Location

Airport or City:

Trip Planner

Search our weather history database for the weather conditions in past years. The results will help you decide how hot, cold, wet, or windy it might be!

Date:

Astronomy

Dec. 05, 2012 Rise Set
Actual Time 7:51 AM CST 4:42 PM CST
Civil Twilight 7:17 AM CST 5:16 PM CST
Nautical Twilight 6:40 AM CST 5:53 PM CST
Astronomical Twilight 6:04 AM CST 6:29 PM CST
Moon 11:49 PM CST (12/5) 12:01 PM CST (12/5)
Length of Visible Light 9h 58m
Length of Day
8h 50m
Waning Gibbous, 59% of the Moon is Illuminated
Dec 5
Waning Gibbous
Dec 6
Last Quarter
Dec 13
New
Dec 19
First Quarter
Dec 28
Full

Hourly Weather History & Observations

Time (CST) Temp. Windchill Dew Point Humidity Pressure Visibility Wind Dir Wind Speed Gust Speed Precip Events Conditions
12:15 AM 12.2 °F 4.3 °F 8.6 °F 85% 30.36 in 10.0 mi ESE 4.6 mph - N/A   Clear
12:35 AM 14.0 °F 5.1 °F 10.4 °F 86% 30.37 in 10.0 mi SE 5.8 mph - N/A   Clear
12:55 AM 14.0 °F 3.9 °F 10.4 °F 86% 30.35 in 10.0 mi ESE 6.9 mph - N/A   Clear
1:15 AM 15.8 °F 6.1 °F 10.4 °F 79% 30.35 in 10.0 mi ESE 6.9 mph - N/A   Clear
1:35 AM 15.8 °F 5.1 °F 12.2 °F 86% 30.35 in 10.0 mi SE 8.1 mph - N/A   Clear
1:55 AM 17.6 °F 7.3 °F 12.2 °F 79% 30.34 in 10.0 mi ESE 8.1 mph - N/A   Clear
2:15 AM 15.8 °F 6.1 °F 12.2 °F 86% 30.34 in 10.0 mi ESE 6.9 mph - N/A   Clear
2:35 AM 15.8 °F 6.1 °F 12.2 °F 86% 30.34 in 10.0 mi ESE 6.9 mph - N/A   Clear
2:55 AM 15.8 °F 6.1 °F 12.2 °F 86% 30.33 in 10.0 mi SE 6.9 mph - N/A   Clear
3:15 AM 17.6 °F 5.7 °F 12.2 °F 79% 30.31 in 10.0 mi SE 10.4 mph - N/A   Clear
3:35 AM 17.6 °F 5.7 °F 12.2 °F 79% 30.31 in 10.0 mi SE 10.4 mph - N/A   Clear
3:55 AM 17.6 °F 7.3 °F 12.2 °F 79% 30.30 in 10.0 mi SE 8.1 mph - N/A   Clear
4:15 AM 17.6 °F 5.0 °F 12.2 °F 79% 30.28 in 10.0 mi SE 11.5 mph - N/A   Clear
4:35 AM 17.6 °F 4.3 °F 12.2 °F 79% 30.27 in 10.0 mi SE 12.7 mph - N/A   Clear
4:55 AM 17.6 °F 3.7 °F 12.2 °F 79% 30.26 in 10.0 mi SE 13.8 mph - N/A   Clear
5:15 AM 17.6 °F 3.7 °F 12.2 °F 79% 30.26 in 10.0 mi ESE 13.8 mph - N/A   Clear
5:35 AM 17.6 °F 2.7 °F 12.2 °F 79% 30.25 in 10.0 mi ESE 16.1 mph - N/A   Clear
5:55 AM 17.6 °F 3.2 °F 12.2 °F 79% 30.25 in 10.0 mi SE 15.0 mph 20.7 mph N/A   Clear
6:15 AM 17.6 °F 2.2 °F 12.2 °F 79% 30.23 in 10.0 mi SE 17.3 mph - N/A   Clear
6:35 AM 17.6 °F 3.2 °F 12.2 °F 79% 30.22 in 10.0 mi SE 15.0 mph - N/A   Clear
6:55 AM 19.4 °F 4.5 °F 12.2 °F 74% 30.20 in 10.0 mi SE 17.3 mph 24.2 mph N/A   Clear
8:55 AM 21.2 °F 3.9 °F 14.0 °F 74% 30.14 in 10.0 mi SE 26.5 mph 32.2 mph N/A   Clear
9:15 AM 21.2 °F 4.2 °F 14.0 °F 74% 30.12 in 10.0 mi SE 25.3 mph 31.1 mph N/A   Clear
9:35 AM 24.8 °F 8.1 °F 15.8 °F 69% 30.11 in 10.0 mi SE 28.8 mph - N/A   Clear
9:55 AM 24.8 °F 8.4 °F 15.8 °F 69% 30.09 in 10.0 mi SE 27.6 mph - N/A   Clear
10:15 AM 24.8 °F 10.0 °F 15.8 °F 69% 30.09 in 10.0 mi SE 21.9 mph 32.2 mph N/A   Clear
10:35 AM 26.6 °F 11.1 °F 15.8 °F 64% 30.08 in 10.0 mi SE 26.5 mph 32.2 mph N/A   Clear
10:55 AM 26.6 °F 11.4 °F 15.8 °F 64% 30.06 in 10.0 mi SE 25.3 mph 33.4 mph N/A   Clear
11:15 AM 28.4 °F 13.8 °F 15.8 °F 59% 30.03 in 10.0 mi SE 25.3 mph 31.1 mph N/A   Clear
11:35 AM 28.4 °F 13.3 °F 17.6 °F 64% 30.01 in 10.0 mi SE 27.6 mph - N/A   Clear
11:55 AM 28.4 °F 14.7 °F 17.6 °F 64% 29.99 in 10.0 mi SE 21.9 mph 32.2 mph N/A   Clear
12:15 PM 30.2 °F 16.8 °F 17.6 °F 60% 29.98 in 10.0 mi SE 23.0 mph 27.6 mph N/A   Clear
12:35 PM 32.0 °F 19.8 °F 19.4 °F 60% 29.97 in 10.0 mi SE 20.7 mph 28.8 mph N/A   Clear
12:55 PM 32.0 °F 19.8 °F 19.4 °F 60% 29.96 in 10.0 mi SE 20.7 mph 28.8 mph N/A   Clear
1:15 PM 33.8 °F 22.2 °F 19.4 °F 56% 29.93 in 10.0 mi SE 20.7 mph 26.5 mph N/A   Clear
1:35 PM 33.8 °F 21.6 °F 19.4 °F 56% 29.91 in 10.0 mi SE 23.0 mph 27.6 mph N/A   Clear
1:55 PM 35.6 °F 24.5 °F 19.4 °F 52% 29.90 in 10.0 mi SE 20.7 mph 31.1 mph N/A   Clear
2:15 PM 35.6 °F 25.5 °F 19.4 °F 52% 29.89 in 10.0 mi SE 17.3 mph - N/A   Clear
2:35 PM 35.6 °F 24.8 °F 21.2 °F 56% 29.87 in 10.0 mi SE 19.6 mph - N/A   Clear
2:55 PM 37.4 °F 27.5 °F 21.2 °F 52% 29.86 in 10.0 mi SE 18.4 mph 24.2 mph N/A   Clear
3:15 PM 39.2 °F 30.2 °F 23.0 °F 52% 29.84 in 10.0 mi SE 17.3 mph 23.0 mph N/A   Clear
3:35 PM 39.2 °F 31.2 °F 23.0 °F 52% 29.84 in 10.0 mi SE 13.8 mph - N/A   Clear
3:55 PM 39.2 °F 29.6 °F 24.8 °F 56% 29.83 in 10.0 mi SE 19.6 mph 24.2 mph N/A   Clear
4:15 PM 39.2 °F 30.5 °F 24.8 °F 56% 29.83 in 10.0 mi SE 16.1 mph - N/A   Clear
4:35 PM 39.2 °F 29.8 °F 24.8 °F 56% 29.81 in 10.0 mi SE 18.4 mph - N/A   Clear
4:55 PM 39.2 °F 30.5 °F 24.8 °F 56% 29.80 in 10.0 mi ESE 16.1 mph - N/A   Clear
5:15 PM 37.4 °F 27.2 °F 24.8 °F 60% 29.78 in 10.0 mi SE 19.6 mph - N/A   Clear
5:35 PM 37.4 °F 27.5 °F 24.8 °F 60% 29.78 in 10.0 mi ESE 18.4 mph - N/A   Clear
5:55 PM 37.4 °F 28.2 °F 24.8 °F 60% 29.78 in 10.0 mi SE 16.1 mph - N/A   Clear
6:15 PM 37.4 °F 27.8 °F 24.8 °F 60% 29.78 in 10.0 mi SE 17.3 mph - N/A   Clear
6:35 PM 37.4 °F 28.2 °F 24.8 °F 60% 29.77 in 10.0 mi SE 16.1 mph - N/A   Clear
6:55 PM 37.4 °F 27.8 °F 24.8 °F 60% 29.76 in 10.0 mi SE 17.3 mph - N/A   Clear
7:15 PM 37.4 °F 27.5 °F 24.8 °F 60% 29.74 in 10.0 mi SE 18.4 mph 24.2 mph N/A   Clear
7:35 PM 37.4 °F 27.2 °F 24.8 °F 60% 29.74 in 10.0 mi SE 19.6 mph - N/A   Clear
7:55 PM 37.4 °F 27.8 °F 24.8 °F 60% 29.73 in 10.0 mi SE 17.3 mph - N/A   Clear
8:15 PM 37.4 °F 28.5 °F 26.6 °F 65% 29.73 in 10.0 mi SE 15.0 mph - N/A   Clear
8:35 PM 37.4 °F 27.8 °F 26.6 °F 65% 29.71 in 10.0 mi SE 17.3 mph - N/A   Clear
8:55 PM 39.2 °F 30.8 °F 26.6 °F 61% 29.71 in 10.0 mi SE 15.0 mph - N/A   Clear
9:15 PM 39.2 °F 31.6 °F 26.6 °F 61% 29.71 in 10.0 mi SE 12.7 mph - N/A   Clear
9:35 PM 39.2 °F 31.2 °F 26.6 °F 61% 29.71 in 10.0 mi SE 13.8 mph - N/A   Clear
9:55 PM 39.2 °F 30.8 °F 26.6 °F 61% 29.70 in 10.0 mi SE 15.0 mph - N/A   Clear
10:15 PM 39.2 °F 31.6 °F 26.6 °F 61% 29.69 in 10.0 mi SE 12.7 mph - N/A   Clear
10:35 PM 39.2 °F 32.0 °F 26.6 °F 61% 29.70 in 10.0 mi SE 11.5 mph 16.1 mph N/A   Clear
10:55 PM 39.2 °F 32.5 °F 26.6 °F 61% 29.70 in 10.0 mi SE 10.4 mph - N/A   Clear
11:15 PM 39.2 °F 32.5 °F 28.4 °F 65% 29.71 in 10.0 mi SE 10.4 mph - N/A   Clear
11:35 PM 39.2 °F 33.6 °F 28.4 °F 65% 29.71 in 10.0 mi SE 8.1 mph - N/A   Scattered Clouds
11:55 PM 37.4 °F 31.4 °F 26.6 °F 65% 29.70 in 10.0 mi SE 8.1 mph - N/A   Scattered Clouds